Asiasat 6

operational
NORAD ID: 40141 Int'l Des: 2014-052 Owner: ASIA Country: HK
HEOCIRCULARGSOGEO

Über Asiasat 6

Beschreibung wird geladen...

Live-Position

3D-Globus wird geladen...

Nächste Überflüge

Höhenverlauf

Altitude vs Time

uPlot chart will show altitude changes over time

Zweizeiliger Elementsatz

1 40141U 14052A 26072.62683807 -.00000362 00000-0 00000-0 0 9991
2 40141 0.0180 99.7106 0000893 284.9235 132.1700 1.00270289 42128
Epoch: 13. März 2026 • Age: 43 hours

Aktueller Status

Höhe 35790.3 km
Geschwindigkeit 3.07 km/s
Subsatellitenpunkt 0.03°N, 119.89°E
Startdatum 7. Sept. 2014
Alter 11.5 years
Typ other

Technische Details

Klassifizierung Payload
Masse 3700.00 kg
Trockenmasse 2500.00 kg
Gesamtmasse 3700.00 kg
Länge 4.50 m
Durchmesser 2.20 m
Spannweite 27.00 m
Form Box + 2 pan
Hersteller SSL
Bus-Typ LS-1300
Phasenstatus In Orbit
Besitzer/Staat ASIA/HK

Große Konstellationen

Loading constellations...